Location: Houghton
(47.1220°N, 88.5690°W)
Time: 16:42:03
(UTC-05:00)

Tiangong 1 - Visible Passes

Search period start: 17 December 2017 00:00
Search period end: 27 December 2017 00:00
Orbit: 274 x 301 km, 42.8° (Epoch: 17 December)

Date Brightness Start Highest point End Pass type
(mag) Time Alt. Az. Time Alt. Az. Time Alt. Az.
20 Dec 3.6 07:15:57 10° S 07:17:12 13° SSE 07:18:27 10° SE visible
21 Dec 3.2 07:18:49 10° SSW 07:20:39 18° SSE 07:22:29 10° ESE visible
22 Dec 2.7 07:21:56 10° SW 07:24:02 23° SSE 07:26:08 10° ESE visible
23 Dec 2.3 07:25:15 11° SW 07:27:20 27° S 07:29:34 10° ESE visible
24 Dec 2.1 07:28:35 12° WSW 07:30:33 29° S 07:32:48 10° ESE visible
25 Dec 4.3 06:01:32 10° ESE 06:01:32 10° ESE 06:01:34 10° ESE visible
25 Dec 2.2 07:31:44 12° WSW 07:33:40 27° S 07:35:53 10° SE visible
26 Dec 4.2 06:04:33 11° ESE 06:04:33 11° ESE 06:04:41 10° ESE visible
26 Dec 2.4 07:34:44 11° WSW 07:36:41 23° SSW 07:38:45 10° SE visible
